Estación de Las Puertas

Ultimos registro cada 15 minutos 29
Estación Fecha / Hora Temperatura Humedad Lluvia Velocidad Dirección Radiación Presion
29 Las Puertas 08-05-2026 07:00 5,8 86 0 0 110 0 1019,1
28 Las Puertas 08-05-2026 06:45 6,1 86 0 0 78 0 1019,1
27 Las Puertas 08-05-2026 06:30 6,3 86 0 0 78 0 1019,1
26 Las Puertas 08-05-2026 06:15 6,5 87 0 0 65 0 1019
25 Las Puertas 08-05-2026 06:00 6,3 86 0 0,4 17 0 1018,8
24 Las Puertas 08-05-2026 05:45 6,4 86 0 0 90 0 1018,9
23 Las Puertas 08-05-2026 05:30 6,7 86 0 0 90 0 1018,6
22 Las Puertas 08-05-2026 05:15 6,9 87 0 0 90 0 1018,5
21 Las Puertas 08-05-2026 05:00 7,1 85 0 0 90 0 1018,4
20 Las Puertas 08-05-2026 04:45 7,5 85 0 0 90 0 1018,7
19 Las Puertas 08-05-2026 04:30 7,9 85 0 0,4 91 0 1018,7
18 Las Puertas 08-05-2026 04:15 8,2 88 0 0,9 78 0 1018,9
17 Las Puertas 08-05-2026 04:00 7,6 88 0 0,9 79 0 1018,9
16 Las Puertas 08-05-2026 03:45 7,4 87 0 0 110 0 1019
15 Las Puertas 08-05-2026 03:30 7,4 87 0 0 72 0 1019,2
14 Las Puertas 08-05-2026 03:15 7,6 87 0 0 72 0 1019,1
13 Las Puertas 08-05-2026 03:00 7,8 86 0 0 72 0 1019,2
12 Las Puertas 08-05-2026 02:45 8,2 85 0 0 72 0 1019,3
11 Las Puertas 08-05-2026 02:30 8,7 85 0 0 72 0 1019,5
10 Las Puertas 08-05-2026 02:15 9,3 84 0 0 72 0 1019,6
9 Las Puertas 08-05-2026 02:00 9,7 84 0 0 176 0 1019,8
8 Las Puertas 08-05-2026 01:45 10 85 0 0,9 80 0 1019,7
7 Las Puertas 08-05-2026 01:30 9,9 85 0 0 106 0 1020
6 Las Puertas 08-05-2026 01:15 10,2 85 0 0 113 0 1020,3
5 Las Puertas 08-05-2026 01:00 10,2 87 0 0 65 0 1020,1
4 Las Puertas 08-05-2026 00:45 9,7 86 0 0 167 0 1020,5
3 Las Puertas 08-05-2026 00:30 9,9 85 0 0 167 0 1020,8
2 Las Puertas 08-05-2026 00:15 10,3 85 0 0 229 0 1020,9
1 Las Puertas 08-05-2026 00:00 10,7 85 0 0 229 0 1021,3